| time (UTC) | temp F | wind direction | speed MPH | gust MPH | rain 1hr in | rain 24hr in | rain mn in | humidity % | barometer mb |
| 20260505040040 | 59 | 0.0 | 0.0 | 0.00 | 0.00 | 0.00 | 80 | 1009.3 | |
| 20260505033023 | 61 | 0.0 | 0.0 | 0.00 | 0.00 | 0.00 | 76 | 1008.9 | |
| 20260505030022 | 64 | 0.0 | 0.0 | 0.00 | 0.00 | 0.00 | 71 | 1008.6 | |
| 20260505023017 | 66 | 0.0 | 0.0 | 0.00 | 0.00 | 0.00 | 68 | 1008.3 | |
| 20260505020042 | 68 | 0.0 | 0.0 | 0.00 | 0.00 | 0.00 | 62 | 1008.1 | |
| 20260505013017 | 70 | 0.0 | 0.0 | 0.00 | 0.00 | 0.00 | 57 | 1008.1 | |
| 20260505010022 | 72 | 0.0 | 1.0 | 0.00 | 0.00 | 0.00 | 58 | 1008.1 | |
| 20260505003022 | 74 | 0.0 | 0.0 | 0.00 | 0.00 | 0.00 | 56 | 1008.0 | |
| 20260505000022 | 75 | 0.0 | 0.0 | 0.00 | 0.00 | 0.00 | 54 | 1007.8 | |
| 20260504233017 | 76 | 0.0 | 3.0 | 0.00 | 0.00 | 0.00 | 55 | 1008.0 | |
| 20260504230022 | 77 | 0.0 | 0.0 | 0.00 | 0.00 | 0.00 | 52 | 1008.0 | |
| 20260504223022 | 79 | 0.0 | 1.0 | 0.00 | 0.00 | 0.00 | 50 | 1008.3 | |
| 20260504220041 | 79 | 0.0 | 1.0 | 0.00 | 0.00 | 0.00 | 49 | 1008.4 | |
| 20260504213022 | 80 | 0.0 | 0.0 | 0.00 | 0.00 | 0.00 | 49 | 1008.8 | |
| 20260504210016 | 77 | 0.0 | 0.0 | 0.00 | 0.00 | 0.00 | 54 | 1008.9 | |
| 20260504203022 | 77 | 0.0 | 0.0 | 0.00 | 0.00 | 0.00 | 57 | 1009.3 | |
| 20260504200017 | 75 | 0.0 | 0.0 | 0.00 | 0.00 | 0.00 | 61 | 1009.6 | |
| 20260504193022 | 74 | 0.0 | 1.0 | 0.00 | 0.00 | 0.00 | 62 | 1009.6 | |
| 20260504190022 | 72 | 0.0 | 1.0 | 0.00 | 0.00 | 0.00 | 63 | 1010.0 | |
| 20260504183022 | 71 | 0.0 | 1.0 | 0.00 | 0.00 | 0.00 | 66 | 1010.1 | |
| 20260504180037 | 69 | 0.0 | 1.0 | 0.00 | 0.00 | 0.00 | 71 | 1010.2 | |
| 20260504173017 | 67 | 0.0 | 0.0 | 0.00 | 0.00 | 0.00 | 72 | 1010.2 |